Vertical_Velocity
2 -6 1 -3 2 -2 6 6 7 1 0 -6 -13 5 -0 -0 -9 -8 14 5 -1 0 2 1 -0 -2 4 -14 1 -0 1 -3 -6 -2 -5 -2 -0 0 -1 -2 1 -0 0 -0 -0 -2 -2
0 3 4 2 -5 -3 -6 0 -1 1 -1 -2 13 -14 2 -6 2 -19 6 -10 -5 5 0 -0 -2 -0 -2 -15 2 2 0 -0 -4 -1 -2 -1 -0 2 -1 -1 -2 -0 0 -2 -1 0 -1
-1 2 -1 0 -4 1 7 -4 -5 0 0 -11 1 7 6 15 10 0 -17 -15 2 -2 -0 1 -4 5 -6 2 6 2 1 -3 -1 -1 -3 -1 -3 -2 0 0 -1 -0 -1 -2 0 -0 -1
-6 2 -1 7 7 2 -1 -3 -8 8 7 -11 -4 -6 0 0 -3 12 -6 1 2 1 -4 -0 -0 0 -5 2 1 -2 -1 -1 0 -1 -1 -2 -2 -4 -2 -1 -0 -0 -3 -3 -2 0 -1
-3 -6 3 1 10 1 -2 1 2 -6 10 -9 -7 -5 -13 4 8 -8 -0 -5 -2 -3 -1 3 -4 -4 0 -0 -4 -3 -1 -5 -4 0 -1 -1 -1 -1 -1 -2 -4 -4 -1 -0 -5 0 0
-3 -1 -5 -2 1 5 4 -8 -0 -2 3 2 1 24 -0 18 21 11 12 3 4 3 6 -0 2 -9 -1 -4 -1 -2 0 -1 -0 -3 -3 -4 -3 -3 -4 -5 -4 -1 -1 -2 -0 -3 0
-6 1 -5 -2 -2 3 3 4 -4 1 -2 1 2 1 3 0 -13 16 -4 -6 -5 -24 -22 -1 3 -2 -1 0 0 0 -2 -2 -1 1 -2 -1 -12 -1 1 0 -0 -1 0 0 -3 0 -1
-1 -3 -1 -3 -6 3 6 -5 -3 2 5 -3 -1 1 -5 -8 3 -3 -5 -11 -0 -10 -3 3 -3 -5 1 3 1 -3 -1 -4 -5 -0 -1 -9 -1 0 0 0 0 0 0 -3 -4 -1 4
0 -2 0 -1 -7 -8 4 11 -6 -4 7 -2 0 1 -3 -4 0 -3 0 -5 3 0 -6 2 -0 -4 -1 0 -0 -2 -2 -1 -1 -2 -0 -4 -2 -0 1 -1 1 -0 -0 -0 -0 -2 -2
1 -1 -1 -0 0 -5 -6 1 5 -1 -8 -11 -4 -4 -4 -2 -11 -5 -4 1 -1 -1 -9 -9 -3 -1 -4 -1 -2 -0 -1 -0 -1 -1 0 -1 -0 1 -0 -0 -0 0 -0 0 0 -1 -3
-1 -0 -0 0 -2 1 -7 -4 -1 4 7 -6 -1 -3 -3 5 8 -2 -2 -5 -3 2 -12 -16 -5 -5 -2 -0 -2 -2 -2 -3 -0 1 -7 -7 0 -0 1 1 -0 -6 1 1 0 -0 1
-4 -0 0 -1 -0 -3 0 -4 -3 -5 0 6 2 1 1 -5 -4 2 -2 -6 5 -26 -13 -8 -2 -2 1 2 -0 -0 -1 -1 1 0 -0 -2 2 -1 -2 -1 -0 -1 -2 -1 -0 -1 -2
-0 -2 -2 1 1 -0 -2 -4 0 -5 -3 -8 -8 -3 -4 0 2 -1 -1 3 -17 -13 -9 -2 -2 0 0 0 1 1 -1 -2 -3 -8 -4 -3 -1 1 0 -1 -2 -5 -5 -4 -7 -4 -7
1 1 -2 -4 0 0 3 -1 -1 -2 -2 -4 -2 -2 -8 -5 -3 -0 -2 -11 -14 -2 -1 -1 0 -0 -0 -0 -1 -1 -0 -1 -1 -1 -1 -2 -14 -1 -0 -4 -5 -1 -5 -4 -3 -1 -4
-3 0 1 -2 -5 -1 -1 -2 2 -0 -0 -1 -1 0 1 4 7 6 5 -7 -11 -3 -3 0 1 1 -0 -0 -0 0 -0 -1 -0 -0 -4 -1 -4 1 -0 -0 -7 -1 -1 -4 -3 -1 2
1 -1 -0 2 0 -4 -2 -3 -5 -2 -1 -1 1 -2 -0 2 1 -1 -10 -2 -1 1 -0 -1 -0 -0 -0 -0 -0 -1 -1 -2 0 -1 -1 -2 -5 -2 1 -0 -2 -3 -2 -8 -3 -4 -2
2 1 1 -0 1 0 -2 -2 -3 -3 -1 -4 -4 -4 -5 -5 -2 -4 -5 -1 0 -1 -1 1 1 -0 -1 -0 -0 -1 -2 -1 0 1 -0 0 -5 -12 -2 -1 -5 -0 -1 0 -4 -2 -3
-0 1 2 1 0 -2 0 2 0 -3 -3 0 -1 -5 -1 -1 -5 1 -1 -1 1 -0 -1 -1 -0 1 1 0 -0 0 0 -0 2 -1 -0 -3 -2 -1 -9 -2 -2 -3 -3 -3 -6 -5 -1
-0 -2 -1 -1 1 2 -3 -1 1 -1 -3 -1 -1 -0 -3 -2 -4 -1 -1 -0 0 1 -1 -0 -0 0 -0 0 -3 1 -0 0 -1 -1 -0 -1 -4 -4 -14 -10 -5 -1 -1 -1 -1 -2 -3
-1 -0 -2 -0 -2 0 1 -3 -2 1 0 -1 -1 -7 -1 1 1 -2 -0 -0 0 0 -1 1 -1 -0 -1 0 -0 -3 -1 0 -1 -1 0 -2 0 -5 -8 -8 -3 1 1 0 -3 -0 -3
-1 0 -0 -3 0 -3 -0 -1 -2 -2 1 2 -1 -1 0 -4 -3 -1 0 0 0 -1 -0 1 -2 -0 -3 1 -0 -0 -0 0 2 1 1 -4 0 2 -2 -1 3 -0 -0 -1 3 -7 -3
0 0 -0 -2 -2 -1 -3 -2 -0 -4 -3 0 -0 -3 -0 -1 0 0 -0 -1 -1 0 -5 -2 1 -0 1 -0 -4 -2 -0 -0 -4 2 -0 -0 -4 1 -3 -1 2 1 -1 0 -0 -2 3
-0 1 -0 -1 -0 -2 -0 -3 -3 -2 -2 -2 -1 0 1 0 -0 -2 -3 -2 -0 -0 -0 1 -4 0 1 -4 2 1 1 0 -2 -5 -1 -0 -1 -2 -5 0 -1 -3 -6 -2 -1 -0 -8
-2 -0 1 -1 2 0 -2 -2 -2 -1 -3 -0 0 1 0 -4 -0 -3 0 0 -0 -1 -1 -1 1 -1 -3 0 -3 -3 4 4 5 -2 -1 -0 -1 -0 -2 -3 -4 -17 -0 -2 -4 -3 0
-1 0 -3 -0 -0 -2 1 1 1 -4 -3 -0 2 -1 2 -2 1 -3 1 0 1 -1 1 2 -3 -1 -1 -3 -2 -4 -5 -4 -2 -1 1 -0 -1 -2 0 -0 -15 -8 -2 -2 -3 -11 -4
-1 -0 3 0 -2 -1 -1 0 0 0 -2 -2 1 -1 1 1 -6 3 1 1 -1 -0 -3 -1 4 4 1 -1 -1 -1 -2 -4 -2 -1 -0 -1 -2 -3 -0 1 -2 -5 -1 0 -1 -11 -1
-1 -3 2 -0 -3 -2 -2 -0 0 1 1 1 -3 2 -1 1 -4 2 -2 -2 1 1 -1 2 -1 -1 1 -0 0 -1 -3 -3 -3 -1 -1 0 2 -2 -1 0 -13 -6 -3 -0 -2 -25 -1
-2 -3 -1 0 2 1 -4 -6 3 1 2 -2 0 1 2 1 -13 -1 -1 0 1 0 -1 0 -4 2 1 0 0 -3 1 -5 0 -4 -6 -7 -5 -1 3 4 -15 0 0 -6 -15 -1 -1
-3 -3 1 -0 -1 1 -1 0 -1 2 3 4 -4 2 4 -0 -7 2 6 -6 -8 5 3 3 -0 -1 -4 -1 -0 0 -1 0 -3 -3 2 -5 -14 -13 -15 -25 -5 -4 -5 -4 2 0 -4
Height
1499 1494 1490 1484 1478 1474 1472 1471 1470 1469 1470 1473 1475 1474 1473 1477 1478 1483 1484 1488 1494 1501 1507 1513 1516 1517 1516 1520 1532 1532 1531 1529 1528 1528 1528 1529 1530 1532 1534 1536 1538 1539 1539 1538 1539 1539 1540
1505 1499 1495 1489 1485 1480 1478 1476 1475 1475 1476 1475 1477 1476 1477 1478 1481 1486 1492 1494 1501 1506 1512 1516 1517 1518 1518 1523 1534 1534 1532 1531 1530 1530 1530 1530 1532 1533 1535 1537 1539 1539 1539 1538 1537 1537 1538
1509 1503 1498 1494 1491 1487 1484 1480 1480 1481 1482 1481 1480 1481 1482 1483 1483 1489 1498 1503 1507 1512 1516 1518 1520 1521 1519 1532 1535 1535 1534 1533 1532 1531 1531 1532 1533 1534 1536 1538 1540 1539 1539 1536 1536 1538 1537
1515 1510 1504 1500 1496 1492 1489 1485 1483 1484 1487 1487 1483 1484 1483 1485 1490 1495 1504 1507 1513 1516 1520 1521 1522 1522 1529 1536 1536 1536 1534 1534 1533 1533 1533 1534 1535 1535 1537 1539 1540 1540 1539 1544 1537 1537 1537
1520 1515 1511 1506 1502 1498 1495 1491 1487 1487 1489 1493 1493 1490 1491 1494 1499 1504 1509 1512 1518 1522 1523 1524 1524 1524 1536 1538 1537 1536 1535 1534 1535 1535 1535 1535 1536 1538 1539 1542 1548 1545 1549 1542 1541 1535 1536
1525 1521 1516 1513 1510 1506 1503 1500 1495 1493 1493 1497 1499 1496 1497 1501 1508 1515 1517 1519 1524 1524 1525 1525 1527 1530 1539 1541 1539 1538 1537 1536 1536 1536 1536 1537 1538 1543 1547 1552 1565 1556 1558 1551 1546 1538 1536
1529 1526 1522 1518 1516 1513 1511 1507 1505 1502 1502 1500 1504 1506 1508 1511 1514 1514 1515 1519 1524 1529 1529 1534 1537 1537 1541 1542 1540 1539 1538 1537 1537 1538 1541 1541 1552 1562 1553 1550 1550 1552 1553 1553 1543 1538 1537
1534 1529 1527 1524 1523 1520 1519 1516 1514 1513 1512 1514 1513 1514 1515 1519 1519 1519 1519 1521 1525 1534 1537 1538 1540 1541 1542 1541 1541 1539 1539 1539 1540 1545 1542 1549 1557 1551 1550 1549 1549 1550 1551 1551 1540 1537 1538
1538 1535 1531 1529 1527 1526 1525 1526 1524 1521 1521 1521 1522 1523 1524 1523 1522 1525 1527 1529 1532 1533 1537 1545 1546 1545 1545 1545 1545 1543 1543 1543 1544 1546 1547 1552 1551 1550 1549 1548 1548 1546 1549 1550 1553 1541 1534
1543 1540 1536 1535 1532 1531 1530 1530 1532 1533 1531 1531 1530 1530 1530 1530 1533 1533 1534 1534 1535 1536 1549 1553 1549 1550 1548 1546 1548 1546 1545 1546 1545 1548 1548 1550 1550 1550 1549 1549 1546 1549 1545 1545 1546 1544 1559
1548 1545 1543 1539 1539 1537 1537 1536 1535 1535 1536 1536 1536 1536 1535 1535 1536 1536 1537 1535 1536 1538 1579 1556 1552 1551 1549 1550 1550 1548 1546 1546 1549 1549 1552 1552 1550 1551 1550 1547 1546 1547 1544 1545 1545 1549 1545
1553 1550 1548 1545 1543 1543 1542 1541 1540 1539 1538 1539 1539 1539 1539 1539 1538 1537 1535 1535 1538 1555 1584 1561 1553 1550 1550 1548 1548 1547 1547 1547 1548 1549 1549 1549 1548 1548 1548 1547 1545 1542 1543 1542 1543 1546 1560
1556 1554 1552 1550 1549 1548 1547 1545 1543 1543 1542 1542 1541 1541 1541 1541 1541 1539 1538 1538 1553 1572 1559 1557 1554 1550 1549 1547 1547 1546 1547 1549 1552 1563 1565 1551 1547 1546 1546 1545 1544 1547 1558 1570 1563 1567 1551
1558 1556 1556 1554 1552 1551 1550 1548 1546 1545 1544 1544 1544 1544 1543 1541 1540 1538 1536 1540 1565 1554 1555 1551 1550 1548 1548 1547 1546 1545 1546 1552 1549 1550 1563 1565 1559 1545 1544 1545 1549 1547 1554 1562 1576 1564 1552
1560 1558 1557 1556 1555 1553 1552 1549 1547 1546 1544 1543 1543 1543 1542 1540 1538 1536 1535 1552 1556 1550 1548 1549 1548 1549 1550 1548 1548 1546 1545 1549 1547 1548 1558 1559 1550 1540 1541 1540 1544 1544 1553 1545 1560 1549 1541
1562 1560 1559 1557 1555 1554 1552 1550 1548 1546 1544 1543 1542 1541 1541 1538 1537 1537 1538 1551 1550 1546 1547 1548 1549 1547 1549 1546 1548 1546 1544 1544 1547 1547 1548 1551 1560 1541 1540 1542 1542 1544 1545 1555 1556 1559 1554
1564 1562 1560 1558 1556 1554 1552 1550 1548 1546 1544 1544 1543 1542 1542 1540 1539 1538 1553 1553 1549 1550 1550 1551 1548 1547 1546 1547 1546 1546 1543 1544 1544 1547 1547 1548 1554 1550 1541 1543 1543 1547 1548 1546 1547 1548 1557
1564 1563 1561 1560 1557 1555 1553 1551 1548 1547 1544 1544 1543 1544 1543 1541 1541 1542 1548 1546 1547 1549 1550 1551 1551 1550 1549 1548 1548 1545 1544 1542 1544 1546 1548 1547 1552 1561 1542 1532 1531 1534 1537 1541 1560 1546 1548
1564 1563 1561 1559 1558 1555 1554 1552 1549 1546 1545 1543 1543 1544 1544 1543 1551 1550 1548 1549 1549 1550 1550 1551 1551 1549 1548 1549 1552 1547 1543 1544 1544 1545 1547 1547 1553 1566 1544 1539 1533 1533 1532 1532 1540 1547 1550
1565 1562 1561 1560 1558 1556 1554 1553 1551 1548 1546 1545 1544 1546 1544 1544 1545 1547 1547 1547 1548 1548 1548 1548 1547 1547 1548 1548 1547 1548 1545 1544 1542 1543 1544 1545 1550 1549 1555 1533 1534 1534 1528 1529 1535 1554 1542
1566 1563 1561 1560 1558 1557 1554 1553 1551 1549 1546 1546 1546 1548 1548 1550 1547 1547 1547 1547 1548 1549 1548 1547 1547 1546 1547 1547 1545 1546 1542 1542 1542 1542 1543 1545 1550 1545 1538 1530 1529 1525 1523 1524 1528 1522 1527
1566 1563 1561 1559 1558 1557 1556 1553 1551 1550 1548 1547 1547 1547 1548 1547 1546 1547 1546 1545 1545 1544 1547 1548 1549 1544 1546 1547 1543 1543 1541 1542 1541 1543 1544 1544 1546 1540 1535 1521 1523 1518 1509 1508 1508 1505 1502
1565 1563 1561 1559 1557 1556 1555 1554 1552 1550 1549 1549 1549 1549 1548 1547 1547 1548 1547 1542 1541 1542 1541 1540 1541 1544 1544 1542 1540 1539 1538 1537 1536 1538 1541 1542 1545 1547 1538 1525 1520 1509 1488 1489 1492 1488 1484
1564 1562 1560 1559 1556 1554 1554 1553 1552 1551 1550 1550 1550 1550 1548 1548 1546 1545 1543 1543 1542 1542 1542 1539 1539 1540 1539 1538 1537 1534 1530 1528 1530 1531 1534 1536 1540 1545 1542 1532 1524 1477 1472 1473 1476 1469 1470
1562 1560 1559 1557 1556 1554 1552 1551 1551 1550 1549 1549 1549 1550 1550 1547 1543 1540 1539 1539 1539 1540 1540 1538 1536 1536 1536 1537 1539 1536 1530 1525 1524 1526 1529 1532 1539 1544 1545 1541 1505 1470 1470 1471 1471 1461 1451
1558 1557 1556 1555 1554 1552 1551 1550 1549 1549 1547 1547 1548 1548 1548 1548 1540 1539 1538 1537 1538 1537 1536 1533 1534 1534 1535 1535 1538 1538 1537 1526 1524 1528 1527 1530 1534 1543 1543 1537 1514 1471 1467 1468 1468 1472 1441
1553 1553 1552 1551 1550 1549 1549 1549 1548 1547 1545 1545 1545 1546 1546 1545 1536 1537 1536 1535 1535 1535 1536 1533 1532 1533 1535 1538 1540 1540 1531 1516 1522 1528 1536 1535 1532 1534 1536 1539 1507 1470 1467 1469 1474 1458 1438
1547 1548 1548 1547 1545 1544 1544 1545 1545 1544 1543 1542 1542 1542 1543 1540 1531 1531 1533 1532 1531 1531 1532 1531 1533 1531 1534 1538 1537 1529 1527 1514 1512 1513 1519 1523 1531 1531 1528 1530 1515 1459 1467 1470 1449 1442 1442
1542 1542 1542 1541 1541 1539 1538 1539 1540 1541 1540 1538 1538 1539 1539 1538 1529 1524 1523 1523 1525 1527 1528 1528 1525 1525 1525 1528 1527 1523 1517 1513 1509 1508 1500 1507 1493 1502 1501 1480 1454 1452 1446 1443 1442 1441 1440